FW1299 Weather Reports


time (UTC)temp
C
wind
direction
speed
KPH
gust
KPH
rain 1hr
cm
rain 24hr
cm
rain mn
cm
humidity
%
barometer
mb
20260510214719 20 203 0.0 1.6 0.00 0.03 0.00 75 1013.5
20260510213719 20 267 0.0 3.2 0.00 0.03 0.00 74 1013.5
20260510212720 20 150 0.0 9.7 0.00 0.03 0.00 73 1013.4
20260510211719 21 272 0.0 12.9 0.00 0.05 0.00 71 1013.2
20260510210719 21 189 0.0 6.4 0.00 0.08 0.00 69 1013.2
20260510205718 21 301 0.0 9.7 0.00 0.08 0.00 67 1013.0
20260510203711 23 226 1.6 8.0 0.00 0.08 0.00 61 1012.7
20260510202710 23 213 1.6 8.0 0.00 0.08 0.00 60 1012.6
20260510201710 23 273 1.6 11.3 0.00 0.08 0.00 58 1012.6
20260510200709 24 237 3.2 11.3 0.00 0.08 0.00 61 1012.7
20260510195711 25 257 1.6 9.7 0.00 0.08 0.00 61 1012.7
20260510194710 24 266 1.6 8.0 0.00 0.08 0.00 64 1012.7
20260510193711 25 252 3.2 14.5 0.00 0.08 0.00 60 1012.7
20260510192710 25 255 1.6 6.4 0.00 0.08 0.00 64 1012.9
20260510191711 24 290 1.6 9.7 0.00 0.08 0.00 64 1012.9
20260510190705 24 288 1.6 9.7 0.00 0.08 0.00 66 1013.1
20260510183704 23 282 4.8 17.7 0.00 0.08 0.00 59 1013.0
20260510182703 25 236 1.6 8.0 0.00 0.08 0.00 62 1013.0
20260510181703 24 267 3.2 11.3 0.00 0.08 0.00 63 1012.9
20260510180704 24 260 3.2 11.3 0.00 0.08 0.00 64 1012.9
20260510175703 24 238 3.2 14.5 0.00 0.08 0.00 65 1012.9
20260510174705 24 278 3.2 9.7 0.00 0.08 0.00 65 1012.9
20260510173659 24 210 3.2 14.5 0.00 0.08 0.00 65 1012.9
20260510172659 24 149 0.0 3.2 0.00 0.08 0.00 68 1012.7
20260510171656 23 226 0.0 3.2 0.00 0.08 0.00 72 1012.8
20260510170656 23 75 0.0 6.4 0.00 0.08 0.00 75 1012.8
20260510165655 22 75 0.0 1.6 0.00 0.08 0.00 76 1013.0
20260510164658 22 181 0.0 4.8 0.00 0.08 0.00 75 1013.0
20260510163656 22 189 0.0 1.6 0.00 0.08 0.00 76 1013.0
20260510160656 20 68 0.0 3.2 0.00 0.08 0.00 80 1013.0
20260510153656 18 150 0.0 0.0 0.00 0.08 0.00 85 1013.7
20260510151655 17 43 0.0 0.0 0.00 0.08 0.00 93 1013.8
20260510150657 16 70 0.0 0.0 0.00 0.08 0.00 97 1013.6
20260510145656 16 96 0.0 0.0 0.00 0.08 0.00 99 1013.4
20260510144652 15 97 0.0 0.0 0.00 0.08 0.00 99 1013.4
20260510143651 15 136 0.0 0.0 0.00 0.08 0.00 99 1013.5
20260510142652 14 206 0.0 0.0 0.00 0.08 0.00 99 1013.5
20260510140647 13 150 0.0 0.0 0.00 0.08 0.00 100 1013.5
20260510135647 12 247 0.0 0.0 0.00 0.08 0.00 100 1013.5
20260510134643 12 210 0.0 0.0 0.00 0.08 0.00 100 1013.4
20260510133645 12 234 0.0 0.0 0.00 0.08 0.00 100 1013.4
20260510132639 12 169 0.0 4.8 0.00 0.08 0.00 100 1013.6
20260510130640 12 274 0.0 0.0 0.00 0.08 0.00 100 1013.4
20260510125639 12 258 0.0 0.0 0.00 0.08 0.00 100 1013.2
20260510124639 12 258 0.0 0.0 0.00 0.08 0.00 100 1013.2
20260510123639 11 105 0.0 0.0 0.00 0.08 0.00 100 1012.9
20260510122640 11 146 0.0 0.0 0.00 0.08 0.00 100 1012.9
20260510121637 11 213 0.0 0.0 0.00 0.08 0.00 100 1012.9
20260510120636 11 227 0.0 0.0 0.00 0.08 0.00 100 1012.8
20260510115637 11 236 0.0 0.0 0.00 0.08 0.00 100 1012.7
20260510114638 11 236 0.0 0.0 0.00 0.08 0.00 100 1012.6
20260510113638 11 236 0.0 0.0 0.00 0.08 0.00 100 1012.6
20260510112637 11 236 0.0 0.0 0.00 0.08 0.00 100 1012.7
20260510111636 10 236 0.0 0.0 0.00 0.08 0.00 100 1012.6
20260510110637 10 236 0.0 0.0 0.00 0.08 0.00 100 1012.4
20260510105634 10 236 0.0 0.0 0.00 0.08 0.00 100 1012.3
20260510104635 10 237 0.0 0.0 0.00 0.08 0.00 100 1012.2
20260510103635 10 74 0.0 0.0 0.00 0.08 0.00 100 1012.0
20260510102636 10 75 0.0 0.0 0.00 0.08 0.00 100 1012.0
20260510101635 10 75 0.0 0.0 0.00 0.08 0.00 100 1012.1
20260510100636 10 75 0.0 0.0 0.00 0.08 0.00 100 1011.9
20260510095634 9 75 0.0 0.0 0.00 0.08 0.00 100 1011.8
20260510093634 10 75 0.0 0.0 0.00 0.08 0.00 100 1012.0
20260510092636 10 46 0.0 0.0 0.00 0.08 0.00 100 1012.1
20260510091634 10 43 0.0 0.0 0.00 0.08 0.00 100 1011.9
20260510090634 10 41 0.0 0.0 0.00 0.08 0.00 100 1012.1
20260510085633 10 338 0.0 4.8 0.00 0.08 0.00 100 1012.2
20260510084631 10 66 0.0 0.0 0.00 0.08 0.00 100 1011.8
20260510083632 10 124 0.0 1.6 0.00 0.08 0.00 100 1011.7
20260510082631 10 41 0.0 0.0 0.00 0.08 0.00 100 1011.4
20260510081628 10 41 0.0 0.0 0.00 0.08 0.00 100 1011.3
20260510080630 10 41 0.0 0.0 0.00 0.08 0.00 100 1011.4
20260510075627 10 41 0.0 0.0 0.00 0.08 0.00 100 1011.3
20260510074628 10 41 0.0 0.0 0.00 0.08 0.00 100 1011.3
20260510073628 10 41 0.0 0.0 0.00 0.08 0.00 100 1011.3
20260510072627 10 41 0.0 0.0 0.00 0.08 0.00 100 1011.1
20260510071628 10 41 0.0 0.0 0.00 0.08 0.00 100 1011.2
20260510065626 10 26 0.0 1.6 0.00 0.08 0.00 100 1011.1
20260510064627 10 26 0.0 1.6 0.00 0.08 0.00 100 1011.1
20260510063629 9 26 0.0 0.0 0.00 0.08 0.00 100 1011.0
20260510062625 9 26 0.0 0.0 0.00 0.08 0.00 100 1011.0
20260510060623 9 26 0.0 0.0 0.00 0.08 0.00 99 1011.0
20260510055624 9 26 0.0 0.0 0.00 0.08 0.00 99 1011.2
20260510054622 9 26 0.0 0.0 0.00 0.08 0.00 100 1011.3
20260510053613 9 26 0.0 0.0 0.00 0.08 0.00 100 1011.3
20260510052611 9 26 0.0 0.0 0.00 0.08 0.00 100 1011.3
20260510051611 9 26 0.0 0.0 0.00 0.08 0.00 100 1011.5
20260510045612 9 26 0.0 0.0 0.00 0.08 0.00 99 1011.5
20260510044612 8 26 0.0 0.0 0.00 0.08 0.00 99 1011.5
20260510043612 8 26 0.0 0.0 0.00 0.08 0.00 99 1011.5
20260510042612 8 26 0.0 0.0 0.00 0.08 0.00 99 1011.6
20260510041612 8 26 0.0 0.0 0.00 0.08 0.00 99 1011.5
20260510040613 8 26 0.0 0.0 0.00 0.08 0.00 99 1011.5
20260510035611 8 26 0.0 0.0 0.00 0.08 0.08 99 1011.4
20260510034611 8 26 0.0 0.0 0.00 0.08 0.08 99 1011.4
20260510032611 8 26 0.0 0.0 0.00 0.08 0.08 99 1011.0
20260510031610 8 26 0.0 0.0 0.00 0.08 0.08 99 1011.2
20260510030611 8 26 0.0 0.0 0.00 0.08 0.08 99 1011.2
20260510025612 8 26 0.0 0.0 0.00 0.08 0.08 98 1011.0
20260510024610 8 26 0.0 0.0 0.00 0.08 0.08 98 1011.0
20260510023610 8 26 0.0 0.0 0.00 0.08 0.08 98 1011.0
20260510022609 8 26 0.0 0.0 0.00 0.08 0.08 98 1010.8
20260510021608 8 26 0.0 0.0 0.00 0.08 0.08 98 1010.9
20260510015610 9 26 0.0 0.0 0.00 0.08 0.08 98 1011.0
20260510014604 9 26 0.0 0.0 0.00 0.08 0.08 98 1011.1
20260510011604 10 26 0.0 0.0 0.00 0.08 0.08 97 1010.8
20260510010603 10 26 0.0 0.0 0.00 0.08 0.08 97 1010.8
20260510003602 11 26 0.0 0.0 0.00 0.08 0.08 97 1010.6
20260510002601 11 26 0.0 0.0 0.00 0.08 0.08 96 1010.5
20260510001603 11 26 0.0 0.0 0.00 0.08 0.08 96 1010.5
20260510000601 12 26 0.0 0.0 0.00 0.08 0.08 96 1010.6
20260509235558 12 26 0.0 0.0 0.00 0.08 0.08 96 1010.5
20260509234559 12 26 0.0 0.0 0.00 0.08 0.08 96 1010.5
20260509233557 13 26 0.0 1.6 0.00 0.08 0.08 95 1010.5
20260509232556 13 26 0.0 0.0 0.00 0.08 0.08 95 1010.5
20260509231555 13 26 0.0 1.6 0.00 0.08 0.08 95 1010.3
20260509230554 13 44 0.0 1.6 0.00 0.08 0.08 95 1010.3
20260509225554 13 44 0.0 0.0 0.00 0.08 0.08 95 1010.5
20260509224548 13 55 0.0 1.6 0.03 0.08 0.08 95 1010.6
20260509223548 13 54 0.0 1.6 0.03 0.08 0.08 95 1010.4
20260509222549 13 55 0.0 1.6 0.03 0.08 0.08 95 1010.4
20260509221547 13 64 0.0 3.2 0.05 0.08 0.08 94 1010.6